Regional Weather Roundup
Issued by NWS New Orleans/Baton Rouge, LA

Home | Current Version | Previous Version | Graphics & Text | Print | Product List | Glossary On
Versions: 1 2 3 4 5 6 7 8 9 10 11 12 13 14 15 16 17 18 19 20 21 22 23 24 25 26 27 28 29 30 31 32 33 34 35 36 37 38 39 40 41 42 43 44 45 46 47 48 49 50
618
ASUS44 KLIX 160310
RWRLIX
NEW ORLEANS REGIONAL WEATHER ROUNDUP
NATIONAL WEATHER SERVICE NEW ORLEANS LA
1000 PM CDT TUE APR 15 2014

NOTE: "FAIR" INDICATES FEW OR NO CLOUDS BELOW 12,000 FEET WITH NO
      SIGNIFICANT WEATHER AND/OR OBSTRUCTIONS TO VISIBILITY.
      SKY/WX - SKY CONDITION AND SIGNIFICANT WEATHER.
      TMP - AIR TEMPERATURE.     DP    - DEWPOINT TEMPERATURE.
      RH  - RELATIVE HUMIDITY.   PRES  - PRESSURE.
      HI  - HEAT INDEX.          WCI   - WIND CHILL INDEX.

*  THESE STATIONS ARE NOT NWS OR FAA STATIONS AND ARE NOT UNDER
   NWS QUALITY CONTROL.

LAZ038-040-048-061>063-065>067-069-160400-
SOUTHEAST LOUISIANA

CITY           SKY/WX    TMP DP  RH WIND       PRES   REMARKS
N.O. AUDUBON     N/A     55  32  41 MISG        N/A
N.O. INTL ARPT PTCLDY    53  31  42 N15G25    30.19R
N.O. LAKEFRONT CLEAR     55  34  45 N22       30.20R
N.O. DOWNTOWN*   N/A     55  28  35 N12G17    30.19R
SLIDELL        CLEAR     49  34  56 N5        30.20R
BATON ROUGE    CLEAR     48  33  56 CALM      30.21R
BOOTHVILLE     PTCLDY    57  36  45 N14G22    30.15R
BELLE CHASSE   PTCLDY    53  31  42 N6        30.18R
BOGALUSA*        N/A     46  35  66 N5        30.22R
GALLIANO*      CLEAR     53  37  55 NW12      30.17R
NEW ROADS*       N/A     46  34  62 N6        30.22R
GONZALES*        N/A     49  32  51 N6        30.21R
HAMMOND*       CLEAR     46  34  61 CALM      30.23R
HOUMA*           N/A     50  33  53 N7        30.19R
PORT FOURCHON* CLEAR     55  36  47 N15       30.17R

$$

MSZ070-080>082-160400-
SOUTHERN MISSISSIPPI

CITY           SKY/WX    TMP DP  RH WIND       PRES   REMARKS
MCCOMB         CLEAR     43  33  68 N6        30.21R
GULFPORT       CLEAR     51  33  50 N7        30.18R
BILOXI         CLEAR     51  33  51 N8        30.18R
PASCAGOULA     PTCLDY    47  38  71 N5        30.18R

$$

COASTAL OBSERVATIONS
LAKE AND NEARSHORE STATIONS

STATION/POSITION TIME  TEMP    WIND        PRES    WAVE
                       AIR SEA DIR/SP/G            HT/PER
                 (UTC) (F)     (DEG/KT/KT) (MB)    (FT/S)
PASCAGOULA       0300   51     360/  7/  9 1020.8
WAVELAND YACHT   0300   53 68  350/ 12/ 13 1021.2
GRAND ISLE       0300   58 67   10/ 19/ 22 1021.3
SOUTHWEST PASS   0300   60 58  360/ 19/ 21 1020.8
NEW CANAL        0300   56 64   10/ 18/ 24 1022.5
SHELL BEACH      0300   56 63  340/ 21/ 25 1021.4

OFFSHORE STATIONS

STATION/POSITION TIME  TEMP    WIND        PRES    WAVE
                       AIR SEA DIR/SP/G            HT/PER
                 (UTC) (F)     (DEG/KT/KT) (MB)    (FT/S)
64 S DAUPHIN ISL 0300   59     360/ 23     1020.0

$$




USA.gov is the U.S. government's official web portal to all federal, state and local government web resources and services.